Roanoke, VA

2:38 AM EDT on October 22, 2019 (GMT -0400)
Roanoke Regional-Woodrum

Weather History for KROA - August, 2019

Change the Weather History Date:

Monday, August 5, 2019

  Actual Average Record
Temperature  
Mean Temperature 77 °F 76 °F  
Max Temperature 86 °F 87 °F 105 °F (1930)
Min Temperature 67 °F 66 °F 49 °F (1929)
Degree Days  
Heating Degree Days 0 0  
Month to date heating degree days 0 0  
Since 1 June heating degree days 0 11  
Since 1 July heating degree days 0 0  
Cooling Degree Days 12 11  
Month to date cooling degree days 61 57  
Year to date cooling degree days 1044 780  
Since 1 June cooling degree days 765 664  
Growing Degree Days 26 (Base 50)    
Moisture  
Dew Point 65 °F    
Average Humidity 69    
Maximum Humidity 87    
Minimum Humidity 51    
Precipitation  
Precipitation 0.00 in 0.12 in 1.51 in (1975)
Month to date precipitation 0.26 0.59  
Year to date precipitation 27.83 25.16  
Snow  
Snow 0.00 in - - ()
Month to date snowfall 0.0  
Since 1 June snowfall T  
Since 1 July snowfall T  
Snow Depth 0.00 in    
Sea Level Pressure  
Sea Level Pressure 29.98 in    
Wind  
Wind Speed 5 mph (NW)    
Max Wind Speed 16 mph    
Max Gust Speed 19 mph    
Visibility 10 miles    
Events      
T = Trace of Precipitation, MM = Missing Value Source: NWS Daily Summary

Daily Weather History Graph

Daily Weather History Graph

Search for Another Location

Airport or City:

Astronomy

Aug. 05, 2019 Rise Set
Actual Time 6:27 AM EDT 8:23 PM EDT
Civil Twilight 5:58 AM EDT 8:52 PM EDT
Nautical Twilight 5:24 AM EDT 9:26 PM EDT
Astronomical Twilight 4:46 AM EDT 10:03 PM EDT
Moon 11:35 AM EDT (8/5) 11:42 PM EDT (8/5)
Length of Visible Light 14h 53m
Length of Day
13h 56m
Waxing Crescent, 28% of the Moon is Illuminated
Aug 5
Waxing Crescent
Aug 7
First Quarter
Aug 15
Full
Aug 23
Last Quarter
Aug 30
New

Hourly Weather History & Observations

Time (EDT) Temp. Heat Index Dew Point Humidity Pressure Visibility Wind Dir Wind Speed Gust Speed Precip Events Conditions
12:54 AM 75.9 °F - 64.9 °F 69% 29.98 in 10.0 mi NNE 11.5 mph - N/A   Mostly Cloudy
1:54 AM 73.0 °F - 64.9 °F 76% 29.97 in 10.0 mi North 9.2 mph - N/A   Overcast
2:54 AM 73.0 °F - 64.9 °F 76% 29.97 in 10.0 mi NNE 8.1 mph - N/A   Clear
3:54 AM 71.1 °F - 64.0 °F 78% 29.97 in 10.0 mi North 6.9 mph - N/A   Clear
4:54 AM 69.1 °F - 64.9 °F 87% 29.97 in 10.0 mi Calm Calm - N/A   Clear
5:54 AM 69.1 °F - 64.0 °F 84% 29.98 in 10.0 mi Calm Calm - N/A   Clear
6:54 AM 68.0 °F - 64.0 °F 87% 29.99 in 10.0 mi WSW 3.5 mph - N/A   Partly Cloudy
7:54 AM 70.0 °F - 64.9 °F 84% 30.01 in 10.0 mi West 5.8 mph - N/A   Partly Cloudy
8:54 AM 73.0 °F - 64.0 °F 73% 30.01 in 10.0 mi NNW 5.8 mph - N/A   Overcast
9:54 AM 75.9 °F - 64.0 °F 67% 30.02 in 10.0 mi North 6.9 mph - N/A   Overcast
10:54 AM 77.0 °F - 63.0 °F 62% 30.02 in 10.0 mi North 9.2 mph - N/A   Mostly Cloudy
11:54 AM 79.0 °F - 64.0 °F 60% 30.02 in 10.0 mi North 4.6 mph - N/A   Scattered Clouds
12:54 PM 82.0 °F 84.5 °F 66.9 °F 60% 30.00 in 10.0 mi West 3.5 mph - N/A   Scattered Clouds
1:54 PM 81.0 °F 83.3 °F 66.9 °F 62% 29.99 in 10.0 mi Variable 5.8 mph - N/A   Partly Cloudy
2:54 PM 82.0 °F 84.1 °F 66.0 °F 58% 29.96 in 10.0 mi Variable 4.6 mph - N/A   Mostly Cloudy
3:54 PM 82.0 °F 84.1 °F 66.0 °F 58% 29.95 in 10.0 mi South 5.8 mph - N/A   Mostly Cloudy
4:54 PM 84.0 °F 85.8 °F 64.9 °F 53% 29.94 in 10.0 mi Calm Calm - N/A   Mostly Cloudy
5:54 PM 82.0 °F 83.8 °F 64.9 °F 56% 29.94 in 10.0 mi NNE 5.8 mph - N/A   Mostly Cloudy
6:54 PM 80.1 °F 81.7 °F 64.0 °F 58% 29.94 in 10.0 mi SSW 5.8 mph - N/A   Mostly Cloudy
7:54 PM 79.0 °F - 64.9 °F 62% 29.94 in 10.0 mi Variable 3.5 mph - N/A   Scattered Clouds
8:54 PM 78.1 °F - 64.0 °F 62% 29.95 in 10.0 mi Calm Calm - N/A   Scattered Clouds
9:54 PM 75.9 °F - 69.1 °F 79% 29.96 in 10.0 mi NNE 3.5 mph - N/A   Clear
10:54 PM 73.0 °F - 66.9 °F 81% 29.96 in 10.0 mi West 3.5 mph - N/A   Scattered Clouds
11:16 PM 73.0 °F - 66.9 °F 81% 29.99 in 10.0 mi West 4.6 mph - N/A   Mostly Cloudy
11:23 PM 73.9 °F - 66.9 °F 79% 29.98 in 10.0 mi WSW 4.6 mph - N/A   Mostly Cloudy
11:54 PM 73.0 °F - 66.9 °F 81% 29.95 in 10.0 mi WNW 3.5 mph - N/A   Partly Cloudy